Regional Weather Roundup
Issued by NWS Newport/Morehead, NC

Current Version | Previous Version | Graphics & Text | Print | Product List | Glossary Off
Versions: 1 2 3 4 5 6 7 8 9 10 11 12 13 14 15 16 17 18 19 20 21 22 23 24 25 26 27 28 29 30 31 32 33 34 35 36 37 38 39 40 41 42 43 44 45 46 47 48 49 50

000
ASUS42 KMHX 222226
RWRMHX
WEATHER ROUNDUP FOR EASTERN NORTH CAROLINA
NATIONAL WEATHER SERVICE NEWPORT/MOREHEAD CITY NC
600 PM EDT TUE AUG 22 2017

NOTE: "FAIR" INDICATES FEW OR NO CLOUDS BELOW 12,000 FEET
WITH NO SIGNIFICANT WEATHER AND/OR OBSTRUCTIONS TO VISIBILITY

NCZ015>017-031-032-045>047-102-103-222300-
NORTH COAST

CITY           SKY/WX    TMP DP  RH WIND       PRES   REMARKS
EDENTON        MOSUNNY   88  76  67 S15       29.96S
ELIZABETH CITY MOSUNNY   88  76  67 S12       29.95F
KITTY HAWK     CLEAR     85  73  67 S6        29.95F
MANTEO         SUNNY     86  74  68 SW21      29.96F

$$

NCZ045>047-081-094-103-104-222300-
CENTRAL COAST

CITY           SKY/WX    TMP DP  RH WIND       PRES   REMARKS
FRISCO         SUNNY     85  77  77 SW14G20   30.00F

$$

NCZ095-097-098-100-101-222300-
SOUTHERN COAST

CITY           SKY/WX    TMP DP  RH WIND       PRES   REMARKS
BEAUFORT       MOSUNNY   85  78  80 S13       29.99F
CEDAR ISLAND   NOT AVBL
JACKSONVILLE   MOSUNNY   83  78  85 S6        29.99F
PINEY ISLAND   PTCLDY   N/A N/A N/A S14       29.99F
WILMINGTON     MOSUNNY   88  74  63 S13G20    29.99F


$$

NCZ011>013-027>030-043-044-078>080-089-090>093-098-222300-
COASTAL PLAIN

CITY           SKY/WX    TMP DP  RH WIND       PRES   REMARKS
AHOSKIE          N/A     85  75  70 S9        29.94F
CLINTON        SUNNY     90  74  59 SW6       29.97S HX 100
ELIZABETHTOWN  NOT AVBL
GOLDSBORO      SUNNY     89  80  75 SE8G16    29.95F HX 105
GREENVILLE     MOSUNNY   88  73  62 S12G17    29.98S
HAVELOCK       NOT AVBL
KENANSVILLE    CLOUDY    86  75  70 SE6       29.97S
KINSTON        CLOUDY    88  73  62 S10G16    29.97F
NEW BERN       MOSUNNY   83  76  79 S7        29.99F
RICHLANDS      CLOUDY    81  78  91 SE5       29.99F
ROCKY MOUNT    MOSUNNY   90  76  63 S5        29.94F HX 101
WASHINGTON     SUNNY     85  76  72 S7        29.96F
WHITEVILLE     MOSUNNY   85  75  72 S10G18    29.98F

$$

AMZ130-135-150-152-154-156-158-170-250-252-270-ANZ085-086-088-633-658-670-222300-
MARINE OBSERVATIONS

STATION/POSITION TIME  TEMP    WIND        PRES    WAVE   SWELL
                       AIR SEA DIR/SP/G            HT/PER HT/PER
                 (UTC) (F)     (DEG/KT/KT) (MB)    (FT/S) (FT/S)
CHESAPEAKE LIGHT NOT AVBL
64 E VA BEACH    2150   80 80  190/ 14/ 16 1015.3    3/11   3/11
DUCK             2200   86 78  190/ 18/ 20 1013.6
2 E DUCK         2200      82                N/A     3/11   2/11
OREGON INLET     2200   84 86  190/ 17/ 21 1015.0
13E OREGON INLT  2148      81                N/A     3/11   3/11
HATTERAS CG      2200   84 83  210/  9/ 15 1015.6
DIAMOND BUOY     2150   83 86  210/ 17/ 19 1015.9    4/10   3/10
CAPE LOOKOUT     2200   82     180/ 12/ 13 1015.5
BEAUFORT LAB     2200   84 83  200/ 12/ 15 1015.0
30 SE NEW RVR IN 2208   82 84  210/ 12/ 16 1016.2
30 SE NEW RVR IN 2213      84                N/A     4/11   2/11
27 SE WRIGHTSVLE 2208   84 84  200/ 14/ 17 1015.9
5 SE WRIGHTSVLE  2208   84 84  200/ 14/ 19 1015.7
225 S CAPE HAT   2150   83 85  140/  4/  6 1018.0    4/ 8   5/ 8
41 SE CHARLESTON 2210   83 85  200/  8/ 10 1016.2

$$




USA.gov is the U.S. government's official web portal to all federal, state and local government web resources and services.